When you browse on this site, cookies collect data to enhance your experience and personalize the content and advertising you see.
Visit our Privacy Policy to learn more. By continuing to use the site, you agree to this use of cookies and data.
  • In Deutschland
  • Länderverzeichnis
  • Für 7 Tage
  • Wassertemperatur
  • Satellitenkarten
  • Wetterkarte
  • Widgets
  • user-avatar
    Anmelden

    Stündliche Wetter Golejewo

    Heute, 25 April, Donnerstag

    Zeit Temperatur Niederschläge Wind Luftdruck Luftfeuchtigkeit
    00:00 +13°C° 0 mm 5 m/S 750 mmHg 78%
    01:00 +12°C° 0 mm 4 m/S 750 mmHg 82%
    02:00 +12°C° 0 mm 4 m/S 750 mmHg 81%
    03:00 +12°C° 0 mm 5 m/S 750 mmHg 80%
    04:00 +13°C° 0 mm 5 m/S 750 mmHg 80%
    05:00 +13°C° 0 mm 5 m/S 750 mmHg 79%
    06:00 +14°C° 0 mm 5 m/S 750 mmHg 78%
    07:00 +14°C° 0 mm 5 m/S 750 mmHg 77%
    08:00 +16°C° 0 mm 5 m/S 750 mmHg 71%
    09:00 +19°C° 0 mm 5 m/S 750 mmHg 66%
    10:00 +21°C° 0 mm 5 m/S 750 mmHg 60%
    11:00 +22°C° 0 mm 5 m/S 749 mmHg 57%
    12:00 +22°C° 0 mm 4 m/S 749 mmHg 55%
    13:00 +23°C° 0 mm 4 m/S 749 mmHg 52%
    14:00 +23°C° 0 mm 4 m/S 749 mmHg 53%
    15:00 +23°C° 0 mm 4 m/S 749 mmHg 54%
    16:00 +24°C° 0 mm 3 m/S 749 mmHg 55%
    17:00 +21°C° 0 mm 2 m/S 749 mmHg 61%
    18:00 +20°C° 0 mm 1 m/S 749 mmHg 68%
    19:00 +17°C° 0 mm 0 m/S 749 mmHg 75%
    20:00 +18°C° 0 mm 1 m/S 749 mmHg 76%
    21:00 +18°C° 0 mm 1 m/S 749 mmHg 77%
    22:00 +16°C° 0 mm 2 m/S 749 mmHg 79%
    23:00 +16°C° 0 mm 2 m/S 749 mmHg 81%

    Morgen, 26 April, Freitag

    Zeit Temperatur Niederschläge Wind Luftdruck Luftfeuchtigkeit
    00:00 +15°C° 0 mm 2 m/S 749 mmHg 84%
    01:00 +15°C° 0 mm 2 m/S 749 mmHg 86%
    02:00 +14°C° 0 mm 2 m/S 748 mmHg 87%
    03:00 +14°C° 0 mm 2 m/S 748 mmHg 88%
    04:00 +14°C° 0 mm 2 m/S 748 mmHg 89%
    05:00 +14°C° 0 mm 3 m/S 747 mmHg 84%
    06:00 +16°C° 0 mm 3 m/S 747 mmHg 79%
    07:00 +18°C° 0 mm 3 m/S 747 mmHg 74%
    08:00 +19°C° 0 mm 4 m/S 747 mmHg 68%
    09:00 +21°C° 0 mm 4 m/S 746 mmHg 61%
    10:00 +23°C° 0 mm 5 m/S 746 mmHg 54%
    11:00 +25°C° 0 mm 5 m/S 746 mmHg 52%
    12:00 +25°C° 0 mm 5 m/S 745 mmHg 50%
    13:00 +26°C° 0 mm 5 m/S 745 mmHg 48%
    14:00 +26°C° 0 mm 4 m/S 744 mmHg 47%
    15:00 +26°C° 0 mm 4 m/S 744 mmHg 47%
    16:00 +26°C° 0 mm 4 m/S 744 mmHg 46%
    17:00 +24°C° 0 mm 3 m/S 744 mmHg 52%
    18:00 +21°C° 0 mm 2 m/S 744 mmHg 57%
    19:00 +20°C° 0 mm 2 m/S 743 mmHg 62%
    20:00 +19°C° 0 mm 2 m/S 743 mmHg 64%
    21:00 +18°C° 0 mm 2 m/S 743 mmHg 66%
    22:00 +17°C° 0 mm 2 m/S 743 mmHg 68%
    23:00 +17°C° 0 mm 2 m/S 743 mmHg 70%

    übermorgen, 27 April, Samstag

    Zeit Temperatur Niederschläge Wind Luftdruck Luftfeuchtigkeit
    00:00 +17°C° 0 mm 2 m/S 743 mmHg 71%
    01:00 +16°C° 0 mm 2 m/S 743 mmHg 73%
    02:00 +16°C° 0 mm 2 m/S 743 mmHg 74%
    03:00 +14°C° 0 mm 3 m/S 743 mmHg 76%
    04:00 +14°C° 0 mm 3 m/S 743 mmHg 78%
    05:00 +15°C° 0 mm 4 m/S 744 mmHg 80%
    06:00 +15°C° 0 mm 5 m/S 744 mmHg 82%
    07:00 +16°C° 0 mm 6 m/S 744 mmHg 84%
    08:00 +15°C° 0 mm 7 m/S 745 mmHg 84%
    09:00 +14°C° 0 mm 7 m/S 745 mmHg 84%
    10:00 +12°C° 0 mm 7 m/S 745 mmHg 84%
    11:00 +14°C° 0 mm 6 m/S 746 mmHg 81%
    12:00 +14°C° 0 mm 6 m/S 746 mmHg 78%
    13:00 +14°C° 0 mm 6 m/S 746 mmHg 75%
    14:00 +14°C° 0 mm 5 m/S 746 mmHg 75%
    15:00 +14°C° 0 mm 5 m/S 746 mmHg 75%
    16:00 +13°C° 0 mm 5 m/S 746 mmHg 75%
    17:00 +13°C° 0 mm 4 m/S 747 mmHg 76%
    18:00 +12°C° 0 mm 4 m/S 747 mmHg 76%
    19:00 +12°C° 0 mm 3 m/S 747 mmHg 77%
    20:00 +11°C° 0 mm 3 m/S 748 mmHg 79%
    21:00 +11°C° 0 mm 3 m/S 748 mmHg 81%
    22:00 +10°C° 0 mm 2 m/S 748 mmHg 83%
    23:00 +9°C° 0 mm 3 m/S 748 mmHg 84%

    28 April, Sonntag

    Zeit Temperatur Niederschläge Wind Luftdruck Luftfeuchtigkeit
    00:00 +9°C° 0 mm 3 m/S 749 mmHg 85%
    01:00 +8°C° 0 mm 3 m/S 749 mmHg 86%
    02:00 +8°C° 0 mm 3 m/S 749 mmHg 85%
    03:00 +8°C° 0 mm 3 m/S 749 mmHg 84%
    04:00 +7°C° 0 mm 3 m/S 749 mmHg 84%
    05:00 +8°C° 0 mm 3 m/S 749 mmHg 82%
    06:00 +9°C° 0 mm 3 m/S 749 mmHg 81%
    07:00 +10°C° 0 mm 4 m/S 750 mmHg 79%
    08:00 +11°C° 0 mm 4 m/S 750 mmHg 76%
    09:00 +12°C° 0 mm 4 m/S 750 mmHg 73%
    10:00 +13°C° 0 mm 4 m/S 750 mmHg 71%
    11:00 +14°C° 0 mm 4 m/S 750 mmHg 69%
    12:00 +15°C° 0 mm 4 m/S 750 mmHg 67%
    13:00 +17°C° 0 mm 4 m/S 750 mmHg 66%
    14:00 +17°C° 0 mm 4 m/S 750 mmHg 67%
    15:00 +17°C° 0 mm 4 m/S 750 mmHg 68%
    16:00 +17°C° 0 mm 4 m/S 750 mmHg 69%
    17:00 +15°C° 0 mm 4 m/S 750 mmHg 72%
    18:00 +14°C° 0 mm 4 m/S 750 mmHg 75%
    19:00 +14°C° 0 mm 4 m/S 750 mmHg 79%
    20:00 +13°C° 0 mm 4 m/S 750 mmHg 83%
    21:00 +12°C° 0 mm 4 m/S 750 mmHg 88%
    22:00 +11°C° 0 mm 4 m/S 750 mmHg 92%
    23:00 +12°C° 0 mm 4 m/S 750 mmHg 90%

    29 April, Montag

    Zeit Temperatur Niederschläge Wind Luftdruck Luftfeuchtigkeit
    00:00 +13°C° 0 mm 4 m/S 750 mmHg 88%
    01:00 +13°C° 0 mm 4 m/S 751 mmHg 85%
    02:00 +13°C° 0 mm 5 m/S 751 mmHg 84%
    03:00 +12°C° 0 mm 5 m/S 751 mmHg 84%
    04:00 +10°C° 0 mm 6 m/S 751 mmHg 83%
    05:00 +10°C° 0 mm 6 m/S 751 mmHg 80%
    06:00 +11°C° 0 mm 7 m/S 751 mmHg 77%
    07:00 +11°C° 0 mm 8 m/S 752 mmHg 74%
    08:00 +12°C° 0 mm 8 m/S 752 mmHg 66%
    09:00 +13°C° 0 mm 8 m/S 752 mmHg 59%
    10:00 +15°C° 0 mm 8 m/S 752 mmHg 52%
    11:00 +16°C° 0 mm 8 m/S 752 mmHg 50%
    12:00 +16°C° 0 mm 8 m/S 752 mmHg 48%
    13:00 +17°C° 0 mm 8 m/S 752 mmHg 46%
    14:00 +16°C° 0 mm 7 m/S 753 mmHg 47%
    15:00 +16°C° 0 mm 7 m/S 753 mmHg 47%
    16:00 +16°C° 0 mm 7 m/S 753 mmHg 47%
    17:00 +14°C° 0 mm 6 m/S 753 mmHg 51%
    18:00 +13°C° 0 mm 5 m/S 753 mmHg 54%
    19:00 +10°C° 0 mm 5 m/S 753 mmHg 57%
    20:00 +9°C° 0 mm 5 m/S 754 mmHg 58%
    21:00 +9°C° 0 mm 5 m/S 754 mmHg 58%
    22:00 +8°C° 0 mm 5 m/S 755 mmHg 59%
    23:00 +7°C° 0 mm 5 m/S 755 mmHg 60%

    30 April, Dienstag

    Zeit Temperatur Niederschläge Wind Luftdruck Luftfeuchtigkeit
    00:00 +7°C° 0 mm 5 m/S 755 mmHg 61%
    01:00 +6°C° 0 mm 5 m/S 755 mmHg 63%
    02:00 +5°C° 0 mm 5 m/S 755 mmHg 64%
    03:00 +5°C° 0 mm 5 m/S 755 mmHg 65%
    04:00 +3°C° 0 mm 5 m/S 755 mmHg 67%
    05:00 +5°C° 0 mm 5 m/S 756 mmHg 64%
    06:00 +6°C° 0 mm 5 m/S 756 mmHg 62%
    07:00 +7°C° 0 mm 6 m/S 756 mmHg 60%
    08:00 +8°C° 0 mm 6 m/S 756 mmHg 55%
    09:00 +10°C° 0 mm 6 m/S 756 mmHg 51%
    10:00 +11°C° 0 mm 7 m/S 756 mmHg 46%
    11:00 +12°C° 0 mm 7 m/S 755 mmHg 44%
    12:00 +12°C° 0 mm 7 m/S 755 mmHg 41%
    13:00 +14°C° 0 mm 7 m/S 755 mmHg 39%
    14:00 +14°C° 0 mm 7 m/S 754 mmHg 40%
    15:00 +14°C° 0 mm 6 m/S 754 mmHg 41%
    16:00 +14°C° 0 mm 6 m/S 754 mmHg 41%
    17:00 +12°C° 0 mm 5 m/S 754 mmHg 47%
    18:00 +11°C° 0 mm 4 m/S 754 mmHg 53%
    19:00 +9°C° 0 mm 3 m/S 754 mmHg 59%
    20:00 +8°C° 0 mm 3 m/S 754 mmHg 61%
    21:00 +7°C° 0 mm 3 m/S 754 mmHg 63%
    22:00 +5°C° 0 mm 3 m/S 755 mmHg 64%
    23:00 +5°C° 0 mm 3 m/S 754 mmHg 66%
    Mehr zeigen